[[{"header":{"parameterUnit":"m.s-1","parameterCategory":1,"la1":30.2991,"la2":30.254,"lo1":-89.0895,"lo2":-89.0444,"dy":0.0017,"dx":0.0017,"nx":28,"ny":28,"refTime":"2025-07-24T21:00:00:Z","depth":0,"parameterNumber":2,"parameterNumberName":"U-component_of_WINDS"},"data":[0,0,0,0,0,0,0,0,0,0,0,0,0,0,0,0,0,0,0,0,0,0,0,0,0,0,0,0,0,0,0,0,0,0,0,0,0,0,0,0,0,0,0,0,0,0,0,0,0,0,0,0,0,0,0,0,0,0,-2.1096,-2.1097,0,-2.116,-2.1161,-2.1161,-2.1191,-2.1191,-2.1191,-2.1191,-2.1261,-2.1263,-2.1265,0,0,0,0,0,0,0,0,0,0,0,0,0,-2.1005,-2.1007,-2.1096,-2.1097,-2.1097,-2.116,-2.1161,-2.1162,-2.1191,-2.1191,-2.1191,-2.1191,-2.1261,-2.1263,-2.1265,0,0,0,0,0,0,0,0,0,0,0,0,0,-2.1055,-2.1007,-2.1096,-2.112,-2.1122,-2.116,-2.1161,-2.1162,-2.1191,-2.1191,-2.1191,-2.1191,-2.126,-2.1263,-2.1266,-2.1285,0,0,-2.1274,-2.1276,0,0,0,0,0,0,0,0,-2.1052,-2.1058,-2.1115,-2.1118,-2.1121,-2.1167,-2.1155,-2.1203,-2.1191,-2.1165,-2.1191,-2.1191,-2.123,-2.1236,-2.1248,-2.1289,-2.1292,-2.1275,-2.1276,-2.1278,-2.1278,0,0,0,0,0,0,0,-2.1048,-2.1055,-2.1121,-2.1116,-2.112,-2.1129,-2.1136,-2.1164,-2.1198,-2.1167,-2.117,-2.1177,-2.1232,-2.1245,-2.125,-2.1293,-2.1275,-2.1277,-2.1279,-2.128,-2.1355,-2.1356,0,0,0,0,0,0,-2.104,-2.1052,-2.1119,-2.1123,-2.1085,-2.1131,-2.1139,-2.1153,-2.1197,-2.1204,-2.1177,-2.1178,-2.124,-2.1247,-2.1253,-2.128,-2.1278,-2.128,-2.1282,-2.1355,-2.1355,-2.1356,0,0,0,0,0,0,-2.1038,-2.1046,-2.1117,-2.1089,-2.1098,-2.1133,-2.1148,-2.1154,-2.1167,-2.1204,-2.1211,-2.1183,-2.1241,-2.1248,-2.1277,-2.1282,-2.1282,-2.1284,-2.1355,-2.1355,-2.1356,-2.1333,0,0,0,0,0,0,-2.1035,-2.1045,-2.1051,-2.1088,-2.11,-2.1138,-2.1149,-2.1155,-2.1172,-2.1174,-2.1213,-2.1219,-2.1241,-2.1273,-2.128,-2.1286,-2.1287,-2.1354,-2.1355,-2.1355,-2.1333,-2.1333,-2.1332,0,0,0,0,0,-2.1032,-2.1043,-2.1051,-2.1059,-2.1108,-2.1138,-2.1145,-2.1169,-2.1172,-2.1179,-2.1204,-2.1218,-2.1281,-2.1275,-2.1284,-2.1291,-2.1354,-2.1355,-2.1355,-2.1334,-2.1333,-2.1332,0,0,0,0,0,0,-2.1006,-2.1048,-2.1058,-2.108,-2.1106,-2.1143,-2.1153,-2.1167,-2.1192,-2.1193,-2.1224,-2.1232,-2.1259,-2.1278,-2.1271,-2.1314,-2.1319,-2.1321,-2.13,-2.1299,-2.1298,-2.1293,-2.1289,0,0,0,0,0,-2.1003,-2.1023,-2.1059,-2.1076,-2.1088,-2.1118,-2.1133,-2.1149,-2.1177,-2.1188,-2.1214,-2.1242,-2.1269,-2.1285,-2.1311,-2.1337,-2.1347,-2.1347,-2.1346,-2.1345,-2.1347,-2.1363,-2.1364,-2.1358,-2.1358,-2.1358,0,0,-2.0997,-2.1022,-2.1033,-2.1071,-2.1092,-2.1114,-2.1127,-2.1149,-2.1166,-2.1192,-2.122,-2.1241,-2.1274,-2.1302,-2.1315,-2.1319,-2.1351,-2.1346,-2.1345,-2.1347,-2.1364,-2.1365,-2.1365,-2.1358,-2.1358,-2.1358,0,0,-2.0996,-2.1017,-2.1034,-2.1055,-2.1087,-2.1107,-2.1112,-2.1148,-2.1162,-2.1191,-2.1211,-2.1233,-2.1278,-2.1301,-2.1319,-2.133,-2.1344,-2.1338,-2.1334,-2.135,-2.135,-2.1351,-2.1356,-2.1357,-2.134,-2.134,-2.134,0,-2.0985,-2.1016,-2.1041,-2.1062,-2.1079,-2.1103,-2.1121,-2.1141,-2.1181,-2.1193,-2.1196,-2.1254,-2.1278,-2.1312,-2.1315,-2.1328,-2.1336,-2.1333,-2.1348,-2.1349,-2.135,-2.1355,-2.1356,-2.1339,-2.1339,-2.1339,-2.1339,0,-2.1001,-2.1023,-2.1033,-2.1069,-2.1088,-2.1107,-2.1137,-2.1153,-2.1169,-2.119,-2.1221,-2.1251,-2.1284,-2.1294,-2.131,-2.1331,-2.1333,-2.1342,-2.1347,-2.1349,-2.1354,-2.1356,-2.1337,-2.1338,-2.1338,-2.1338,0,0,-2.0984,-2.1035,-2.1038,-2.1055,-2.1093,-2.1112,-2.1134,-2.1165,-2.1179,-2.1207,-2.1227,-2.1266,-2.1275,-2.1295,-2.1314,-2.1328,-2.1337,-2.1336,-2.1337,-2.1335,-2.1364,-2.1356,-2.1358,-2.1347,-2.1348,-2.1348,-2.1361,0,-2.0988,-2.1026,-2.105,-2.108,-2.1101,-2.1126,-2.1146,-2.1172,-2.1194,-2.1217,-2.1242,-2.1268,-2.1278,-2.129,-2.1306,-2.1332,-2.1343,-2.1332,-2.1368,-2.1369,-2.1357,-2.136,-2.1352,-2.1362,-2.1363,-2.1364,-2.1364,0,-2.0998,-2.1023,-2.1054,-2.1092,-2.1102,-2.1118,-2.115,-2.1172,-2.1204,-2.1219,-2.1242,-2.1262,-2.1289,-2.1294,-2.1332,-2.1324,-2.1341,-2.1357,-2.1358,-2.1362,-2.1365,-2.1364,-2.1366,-2.1367,-2.1367,-2.1367,-2.1367,0,-2.0982,-2.1025,-2.1049,-2.1063,-2.1107,-2.1119,-2.1138,-2.117,-2.1189,-2.1218,-2.123,-2.1263,-2.128,-2.1306,-2.1335,-2.1336,-2.1372,-2.1378,-2.1386,-2.1385,-2.1391,-2.139,-2.1396,-2.1403,-2.1403,-2.1403,-2.1403,0,-2.0984,-2.1002,-2.1043,-2.1057,-2.1079,-2.1109,-2.113,-2.1152,-2.1181,-2.1203,-2.1227,-2.1247,-2.1285,-2.131,-2.1334,-2.1363,-2.1371,-2.1385,-2.1391,-2.1382,-2.138,-2.1393,-2.1393,-2.1404,-2.1404,-2.1404,-2.1403,0,-2.0969,-2.0997,-2.1025,-2.1065,-2.1076,-2.109,-2.1126,-2.1142,-2.1166,-2.1193,-2.1201,-2.1238,-2.127,-2.1302,-2.1345,-2.1361,-2.139,-2.1398,-2.1378,-2.1381,-2.1387,-2.1386,-2.14,-2.1404,-2.1409,-2.1409,-2.1409,0,-2.0968,-2.0982,-2.1024,-2.1039,-2.1057,-2.1082,-2.1101,-2.1131,-2.115,-2.1189,-2.1202,-2.1235,-2.1263,-2.1313,-2.1345,-2.1379,-2.1388,-2.1391,-2.1394,-2.1385,-2.1389,-2.1387,-2.1389,-2.139,-2.139,-2.1389,-2.1389,0,-2.0963,-2.0977,-2.1001,-2.1031,-2.1053,-2.1078,-2.1105,-2.1117,-2.1154,-2.1174,-2.1206,-2.1228,-2.1272,-2.1305,-2.1343,-2.1366,-2.1384,-2.1389,-2.1392,-2.1383,-2.1371,-2.1378,-2.1375,-2.1388,-2.1388,-2.1388,-2.1388,-2.1388,-2.0955,-2.097,-2.1001,-2.1029,-2.1052,-2.1077,-2.1095,-2.1121,-2.1147,-2.1184,-2.1202,-2.1234,-2.1269,-2.1322,-2.1345,-2.1372,-2.1377,-2.1382,-2.1383,-2.1384,-2.1382,-2.1367,-2.1379,-2.138,-2.138,-2.138,-2.138,0,-2.0952,-2.0973,-2.0998,-2.1035,-2.1057,-2.1072,-2.1103,-2.1121,-2.1148,-2.1179,-2.1206,-2.1244,-2.1277,-2.1313,-2.1349,-2.1364,-2.1374,-2.1373,-2.1371,-2.1377,-2.1375,-2.1369,-2.1364,-2.1364,-2.1364,-2.1364,-2.1364,-2.1364,-2.0952,-2.0977,-2.0995,-2.1033,-2.1056,-2.1086,-2.1103,-2.1127,-2.1152,-2.1192,-2.1219,-2.1242,-2.1275,-2.1314,-2.1346,-2.1357,-2.1369,-2.1365,-2.1378,-2.1375,-2.1377,-2.1378,-2.1371,-2.1367,-2.1367,-2.1376,-2.1376,-2.1377]},{"header":{"parameterUnit":"m.s-1","parameterCategory":1,"la1":30.2991,"la2":30.254,"lo1":-89.0895,"lo2":-89.0444,"dy":0.0017,"dx":0.0017,"nx":28,"ny":28,"refTime":"2025-07-24T21:00:00:Z","depth":0,"parameterNumber":3,"parameterNumberName":"V-component_of_WINDS"},"data":[0,0,0,0,0,0,0,0,0,0,0,0,0,0,0,0,0,0,0,0,0,0,0,0,0,0,0,0,0,0,0,0,0,0,0,0,0,0,0,0,0,0,0,0,0,0,0,0,0,0,0,0,0,0,0,0,0,0,7.0051,7.005,0,6.9972,6.9971,6.997,6.9889,6.9888,6.9887,6.9886,6.98,6.9798,6.9797,0,0,0,0,0,0,0,0,0,0,0,0,0,7.0126,7.0125,7.0051,7.005,7.0049,6.9972,6.9971,6.997,6.9889,6.9888,6.9886,6.9885,6.98,6.9799,6.9797,0,0,0,0,0,0,0,0,0,0,0,0,0,7.0075,7.0125,7.0051,6.9999,6.9994,6.9973,6.9971,6.997,6.9889,6.9888,6.9886,6.9884,6.98,6.9799,6.9797,6.9819,0,0,6.9791,6.979,0,0,0,0,0,0,0,0,7.0078,7.0072,7.0008,7.0003,6.9997,6.9939,6.9966,6.9919,6.989,6.9929,6.9886,6.9884,6.9847,6.9841,6.983,6.9814,6.9811,6.9791,6.979,6.9789,6.9788,0,0,0,0,0,0,0,7.0081,7.0075,7.0019,7.0007,7.0,6.9978,6.9969,6.9957,6.9898,6.9925,6.9919,6.9911,6.9843,6.9832,6.9827,6.981,6.9791,6.9789,6.9788,6.9787,6.9807,6.9808,0,0,0,0,0,0,7.0093,7.0078,7.0022,7.0017,7.0034,6.9978,6.9968,6.9959,6.9898,6.9887,6.9913,6.9908,6.9836,6.9829,6.9824,6.9844,6.9789,6.9787,6.9786,6.9805,6.9807,6.9809,0,0,0,0,0,0,7.0095,7.0089,7.0025,7.0046,7.0036,6.9979,6.9969,6.9958,6.9946,6.9889,6.9877,6.9912,6.9834,6.9826,6.9821,6.984,6.9786,6.9785,6.9803,6.9806,6.9808,6.9885,0,0,0,0,0,0,7.0098,7.009,7.0099,7.0047,7.0036,7.0025,6.997,6.9958,6.9944,6.9937,6.9885,6.9874,6.9832,6.9824,6.9819,6.9836,6.9783,6.9801,6.9804,6.9807,6.988,6.989,6.9898,0,0,0,0,0,7.0101,7.0123,7.01,7.0093,7.0045,7.0026,7.0019,6.9972,6.9946,6.9953,6.9916,6.9876,6.9839,6.9824,6.9817,6.9835,6.9799,6.9803,6.9807,6.9876,6.9888,6.9897,0,0,0,0,0,0,7.0176,7.0115,7.0089,7.0095,7.0067,7.0012,7.002,6.9986,6.9963,6.9956,6.9897,6.9886,6.9887,6.986,6.9844,6.9852,6.9813,6.9816,6.9869,6.9879,6.9888,6.9892,6.9782,0,0,0,0,0,7.0195,7.0186,7.0132,7.0142,7.013,7.0078,7.0068,7.0034,7.0001,6.9988,6.995,6.9919,6.99,6.9888,6.9868,6.9877,6.9863,6.9886,6.9894,6.9902,6.9904,6.9905,6.9914,6.9821,6.9821,6.9821,0,0,7.023,7.0196,7.0193,7.0157,7.013,7.0121,7.0068,7.006,7.0051,6.9986,6.9978,6.995,6.991,6.9912,6.9911,6.989,6.9927,6.9906,6.9913,6.991,6.991,6.9918,6.9926,6.9823,6.9823,6.9822,0,0,7.029,7.0264,7.0269,7.0245,7.0207,7.0173,7.0174,7.0126,7.0105,7.0096,7.0047,7.0036,7.0005,6.9978,6.9961,7.0013,6.9974,7.0008,7.0052,7.0054,7.0061,7.0067,7.0083,7.009,7.001,7.0011,7.0011,0,7.0338,7.0323,7.0276,7.0271,7.0256,7.0199,7.0203,7.0181,7.0138,7.0128,7.0106,7.0066,7.0036,7.0029,7.0042,7.0031,7.0029,7.0012,7.0064,7.007,7.0075,7.0089,7.0096,7.0015,7.0014,7.0014,7.0014,0,7.0384,7.0374,7.0383,7.0345,7.0331,7.033,7.0281,7.0273,7.0241,7.0209,7.02,7.0162,7.0132,7.0129,7.0097,7.0118,7.0106,7.0076,7.0035,7.0089,7.0101,7.0107,7.0021,7.0019,7.0018,7.0017,0,0,7.0486,7.0423,7.0427,7.0409,7.0363,7.0354,7.0351,7.0324,7.0317,7.029,7.0284,7.026,7.0231,7.0211,7.0176,7.0179,7.0219,7.0147,7.0145,7.0159,7.0238,7.0259,7.0267,7.0195,7.0196,7.0197,7.024,0,7.0536,7.0529,7.0486,7.049,7.048,7.0426,7.0423,7.0395,7.0365,7.035,7.0316,7.0299,7.0264,7.0252,7.0252,7.0215,7.0234,7.0211,7.0186,7.0186,7.0195,7.0274,7.0297,7.034,7.0245,7.0246,7.0247,0,7.0593,7.0571,7.0574,7.0529,7.0523,7.0521,7.0493,7.0481,7.0447,7.0424,7.0404,7.0365,7.0357,7.0322,7.0309,7.0294,7.0282,7.0262,7.0263,7.0256,7.0218,7.0267,7.0352,7.0358,7.0254,7.0254,7.0253,0,7.0665,7.0636,7.0634,7.062,7.0568,7.0568,7.0546,7.051,7.0497,7.0472,7.0462,7.0436,7.0421,7.0401,7.0355,7.0335,7.0347,7.0308,7.0326,7.0327,7.0328,7.0328,7.041,7.0325,7.0325,7.0325,7.0325,0,7.0723,7.0727,7.0665,7.0664,7.0666,7.0617,7.062,7.0593,7.0562,7.0553,7.0505,7.0497,7.0439,7.0424,7.0389,7.0382,7.0376,7.0356,7.0346,7.0359,7.0361,7.0348,7.0343,7.0326,7.0326,7.0326,7.0325,0,7.0802,7.0762,7.0756,7.0708,7.0696,7.0699,7.0657,7.0653,7.0621,7.061,7.0605,7.0554,7.0534,7.0488,7.0455,7.0431,7.0432,7.0416,7.0444,7.0437,7.0456,7.0454,7.053,7.0537,7.0451,7.0452,7.0453,0,7.0841,7.0843,7.0796,7.0787,7.0768,7.0754,7.0741,7.0693,7.0681,7.0642,7.0642,7.0619,7.0598,7.0568,7.0526,7.0501,7.0482,7.051,7.0477,7.049,7.0479,7.0479,7.0477,7.0516,7.0518,7.0519,7.052,0,7.0913,7.0893,7.0877,7.0853,7.0839,7.0817,7.0793,7.0788,7.0735,7.0723,7.0703,7.0687,7.0654,7.063,7.0599,7.0574,7.0537,7.0531,7.0533,7.0545,7.056,7.055,7.0461,7.0528,7.0528,7.0527,7.0526,7.0526,7.0971,7.097,7.0937,7.0919,7.0897,7.0876,7.0869,7.0838,7.0821,7.0792,7.0765,7.0747,7.0712,7.0666,7.0644,7.0628,7.0609,7.0613,7.0613,7.0614,7.0619,7.0566,7.0622,7.0622,7.0621,7.0621,7.0621,0,7.1039,7.1016,7.1001,7.0969,7.0955,7.0925,7.0897,7.0887,7.0873,7.0844,7.0825,7.0801,7.0779,7.0737,7.071,7.0705,7.0687,7.0699,7.0698,7.0692,7.0638,7.0638,7.0714,7.0714,7.0714,7.0714,7.0714,7.0714,7.1073,7.1068,7.1045,7.1029,7.1004,7.0988,7.0975,7.0954,7.0931,7.0908,7.089,7.0863,7.0829,7.0799,7.0777,7.0765,7.0756,7.0773,7.0755,7.0705,7.0696,7.0688,7.0687,7.0772,7.0772,7.081,7.081,7.081]}]]